User: anonymous
Location: NJAA Observatory
(40.6819°N, 74.8979°W)
Time: 07:03:57
(UTC-04:00)
Language:

Cosmos 2082 - Orbit

View from above orbital plane
View from above orbital plane
View from above satellite
View from above satellite

Ground track
Ground track

The orbit data is extracted from the following two-line orbital elements,

1 20624U 90046A   14237.45503178 -.00000095  00000-0 -25231-4 0  9963
2 20624 071.0416 203.3946 0013474 161.7532 346.2257 14.14092554252043
Epoch (UTC): 25 August 2014 10:55:14
Eccentricity: 0.0013474
inclination: 71.0416°
perigee height: 835 km
apogee height: 855 km
right ascension of ascending node: 203.3946°
argument of perigee: 161.7532°
revolutions per day: 14.14092554
mean anomaly at epoch: 346.2257°
orbit number at epoch: 25204

The dashed part of the orbit path shows where the satellite is in the earth's shadow,  

DLR